Showing default

FRG-10D1, 100400

Orbit data source: Space-Track

FRG-10D1, 100400 is a Turkish payload satellite in SSO that was launched on Fri, 28 Nov 2025 UTC launched from the Air Force Western Test Range (AFWTR). Payload-class satellites include a variety of spacecraft equipped with specific instruments for various scientific and technological missions. These include communications satellites like Starlink; space stations such as the ISS; scientific satellites like the Hubble; Earth observation satellites from companies like Planet Labs, Umbra, and HawkEye 360; GPS; miniature CubeSats for education and research; and military/defense satellites.

Loading next visibility...
Identifier
100400, 2025-276EF
Orbit
SSO
Country
Flag of TRTR / TURK
Related business
Manufacturer
FERG
Mission
Operational spacecraft
Bus & Motor
CUBESAT 6U, Unknown motor
Mass
~10 kg wet, ~10 kg dry
Launch date (UTC)
2025-11-28 (9 months ago)
Launch vehicle
Unknown
Launch site
Air Force Western Test Range (AFWTR)
Object type
Payload
Rocket body
Debris
Shape & HBR
BOX, 0.1 m
Radar Cross Section
Medium (>0.1 m² and <1 m²)

Expand to show TLE details & history
Last TLE update: 14 hours ago

TLE from 14 hours ago
0 FRG-10D1
1 A0400U 25276EF  26238.42507883  .00001908  00000-0  20190-3 0  9997
2 A0400  97.3955 296.5543 0129271 156.1164 204.6123 14.84258193 39795
Epoch: 2026-08-26T10:12Z
TLE epoch observation values (Epoch: 2026-08-26T10:12:06.810Z)
Latitude
-0.00011°
Longitude
168.84768°
Altitude
701.374 km
Speed
7.461 km/s
True Right ascension
19h 46m 13s
True Declination
0° 00' 00"
Sunlit
Object was in full shadow at epoch
Visualization orbit readout
Latitude
Unknown
Longitude
Unknown
Altitude
Unknown
Speed
Unknown
Apparent Right ascension
Unknown
Apparent Declination
Unknown
Sunlit
N/A
Visualization observer readout
Local Sidereal Time
15:11:58
Azimuth
Unknown
Elevation
Unknown
Doppler factor
Unknown
Orbital elements
Apogee altitude
703.302 km
Perigee altitude
522.554 km
Semi-major axis
6,991.065 km
Eccentricity
0.01293
Inclination
97.3955°
RAAN
296.5543°
Arg. of periapsis
156.1164°
True anomaly
204.00431°
Mean anomaly
204.6123°
Eccentric anomaly
204.30742°
Mean motion
3.71303 °/min
Orbital period
96.96 mins
BSTAR
0.0002019
Loading maneuver chart data...
Computing Atmospheric mass density...
Loading historical data...
Loading historical data...
Loading historical data...
Loading historical data...
Loading historical data...
Loading historical data...
Loading historical data...

Documentation

Showing up to 5 results
|